Weather History for KDBQ - November, 2012

Change the Weather History Date:

Tuesday, November 20, 2012

  Actual Average Record
Temperature  
Mean Temperature 44 °F 34 °F  
Max Temperature 51 °F 42 °F 70 °F (1913)
Min Temperature 36 °F 26 °F 3 °F (2014)
Degree Days  
Heating Degree Days 21 31  
Month to date heating degree days 480 512  
Since 1 July heating degree days 1229 1161  
Cooling Degree Days 0 0  
Month to date cooling degree days 0 0  
Year to date cooling degree days 907 643  
Moisture  
Dew Point 43 °F    
Average Humidity 89    
Maximum Humidity 100    
Minimum Humidity 77    
Precipitation  
Precipitation 0.00 in 0.07 in 2.27 in (1992)
Month to date precipitation 1.16 1.58  
Year to date precipitation 21.70 33.68  
Snow  
Snow 0.00 in 0.20 in - ()
Month to date snowfall 0.4 1.1  
Since 1 July snowfall 0.4 1.1  
Since 1 September snowfall 0.4 1.1  
Snow Depth 0.00 in    
Sea Level Pressure  
Sea Level Pressure 30.14 in    
Wind  
Wind Speed 3 mph (NNE)    
Max Wind Speed 13 mph    
Max Gust Speed 16 mph    
Visibility 1 miles    
Events Fog    
T = Trace of Precipitation, MM = Missing Value Source: NWS Daily Summary

Daily Weather History Graph

Daily Weather History Graph

Search for Another Location

Airport or City:

Trip Planner

Search our weather history database for the weather conditions in past years. The results will help you decide how hot, cold, wet, or windy it might be!

Date:

Astronomy

Nov. 20, 2012 Rise Set
Actual Time 7:00 AM CST 4:36 PM CST
Civil Twilight 6:29 AM CST 5:06 PM CST
Nautical Twilight 5:55 AM CST 5:41 PM CST
Astronomical Twilight 5:21 AM CST 6:14 PM CST
Moon 12:30 PM CST (11/20) No Moon Set
Length of Visible Light 10h 37m
Length of Day
9h 35m
First Quarter, 51% of the Moon is Illuminated
Nov 20
First Quarter
Nov 28
Full
Dec 6
Last Quarter
Dec 13
New
Dec 19
First Quarter

Hourly Weather History & Observations

Time (CST) Temp. Windchill Dew Point Humidity Pressure Visibility Wind Dir Wind Speed Gust Speed Precip Events Conditions
12:53 AM 46.0 °F - 44.1 °F 93% 30.08 in 5.0 mi Calm Calm - N/A   Overcast
1:53 AM 46.0 °F - 44.1 °F 93% 30.08 in 4.0 mi Calm Calm - N/A   Overcast
2:53 AM 46.0 °F - 44.1 °F 93% 30.09 in 4.0 mi Calm Calm - N/A   Overcast
3:53 AM 46.0 °F - 44.1 °F 93% 30.09 in 4.0 mi Calm Calm - N/A   Overcast
4:53 AM 46.0 °F - 44.1 °F 93% 30.10 in 4.0 mi Calm Calm - N/A   Overcast
5:53 AM 44.6 °F 43.1 °F 42.8 °F 93% 30.09 in 2.5 mi North 3.5 mph - N/A   Overcast
6:06 AM 44.6 °F 43.1 °F 42.8 °F 93% 30.09 in 3.0 mi NE 3.5 mph - N/A   Overcast
6:39 AM 42.8 °F 38.6 °F 42.8 °F 100% 30.09 in 2.5 mi NNE 6.9 mph - N/A   Mostly Cloudy
6:53 AM 42.1 °F 37.1 °F 41.0 °F 96% 30.11 in 2.0 mi NNE 8.1 mph - N/A   Scattered Clouds
7:04 AM 42.8 °F 37.5 °F 42.8 °F 100% 30.10 in 1.2 mi NNE 9.2 mph - N/A   Clear
7:11 AM 42.8 °F 37.0 °F 42.8 °F 100% 30.10 in 1.2 mi North 10.4 mph - N/A   Scattered Clouds
7:20 AM 44.6 °F 38.8 °F 44.6 °F 100% 30.10 in 1.2 mi NNE 11.5 mph - N/A   Mostly Cloudy
7:31 AM 44.6 °F 39.2 °F 44.6 °F 100% 30.11 in 0.5 mi North 10.4 mph - N/A Fog Fog
7:38 AM 44.6 °F 38.8 °F 44.6 °F 100% 30.11 in 0.2 mi NNE 11.5 mph - N/A Fog Fog
7:46 AM 44.6 °F 38.8 °F 44.6 °F 100% 30.12 in 0.2 mi NNE 11.5 mph - N/A Fog Fog
7:53 AM 45.0 °F 39.3 °F 44.1 °F 97% 30.14 in 0.2 mi NNE 11.5 mph - N/A Fog Fog
8:53 AM 45.0 °F 40.6 °F 45.0 °F 100% 30.15 in 0.2 mi North 8.1 mph - N/A Fog Fog
9:53 AM 45.0 °F 42.6 °F 45.0 °F 100% 30.16 in 0.2 mi NNE 4.6 mph - N/A Fog Fog
10:53 AM 46.0 °F 44.8 °F 45.0 °F 96% 30.15 in 0.2 mi NNE 3.5 mph - N/A Fog Fog
11:04 AM 44.6 °F - 44.6 °F 100% 30.13 in 0.2 mi Calm Calm - N/A Fog Fog
11:12 AM 46.4 °F - 46.4 °F 100% 30.13 in 0.2 mi Calm Calm - N/A Fog Fog
11:20 AM 46.4 °F 44.3 °F 46.4 °F 100% 30.14 in 0.8 mi NNW 4.6 mph - N/A   Overcast
11:29 AM 46.4 °F 43.5 °F 44.6 °F 93% 30.14 in 1.0 mi NNW 5.8 mph - N/A   Overcast
11:37 AM 46.4 °F 44.3 °F 44.6 °F 93% 30.13 in 0.8 mi NNW 4.6 mph - N/A   Overcast
11:53 AM 46.0 °F 44.8 °F 45.0 °F 96% 30.15 in 0.5 mi NNE 3.5 mph - N/A Fog Fog
12:53 PM 46.9 °F - 45.0 °F 93% 30.14 in 1.0 mi Calm Calm - N/A   Overcast
1:22 PM 48.2 °F - 46.4 °F 93% 30.11 in 2.0 mi NE 3.5 mph - N/A   Scattered Clouds
1:36 PM 50.0 °F - 44.6 °F 82% 30.11 in 3.0 mi NE 4.6 mph - N/A   Haze
1:53 PM 50.0 °F - 45.0 °F 83% 30.13 in 4.0 mi ENE 3.5 mph - N/A   Haze
2:53 PM 51.1 °F - 45.0 °F 80% 30.14 in 4.0 mi North 6.9 mph - N/A   Haze
3:53 PM 48.0 °F - 44.1 °F 86% 30.15 in 4.0 mi NNE 4.6 mph - N/A   Clear
4:23 PM 44.6 °F 41.4 °F 42.8 °F 93% 30.14 in 2.5 mi NNE 5.8 mph - N/A   Clear
4:43 PM 42.8 °F 40.1 °F 42.8 °F 100% 30.14 in 1.8 mi NE 4.6 mph - N/A   Scattered Clouds
4:53 PM 44.1 °F 40.8 °F 43.0 °F 96% 30.16 in 1.0 mi NE 5.8 mph - N/A   Mist
5:00 PM 44.6 °F 43.1 °F 44.6 °F 100% 30.14 in 0.5 mi ENE 3.5 mph - N/A Fog Fog
5:36 PM 44.6 °F 41.4 °F 44.6 °F 100% 30.16 in 0.2 mi NNE 5.8 mph - N/A Fog Fog
5:53 PM 44.1 °F 40.8 °F 44.1 °F 100% 30.19 in 0.2 mi North 5.8 mph - N/A Fog Fog
6:53 PM 44.1 °F - 44.1 °F 100% 30.19 in 0.2 mi Calm Calm - N/A Fog Fog
7:53 PM 43.0 °F - 42.1 °F 97% 30.19 in 0.2 mi Calm Calm - N/A Fog Fog
8:53 PM 39.9 °F - 39.9 °F 100% 30.20 in 0.2 mi Calm Calm - N/A Fog Fog
9:53 PM 39.0 °F 36.8 °F 39.0 °F 100% 30.19 in 0.2 mi SW 3.5 mph - N/A Fog Fog
10:53 PM 37.0 °F 34.5 °F 37.0 °F 100% 30.20 in 0.2 mi WSW 3.5 mph - N/A Fog Fog
11:53 PM 36.0 °F 32.1 °F 36.0 °F 100% 30.21 in 0.2 mi WSW 4.6 mph - N/A Fog Fog